Regional Weather Roundup
Issued by NWS

Home | Current Version | Previous Version | Text Only | Print | Product List | Glossary Off
Versions: 1 2 3 4 5 6 7 8 9 10 11 12 13 14 15 16 17 18 19 20 21 22 23 24 25 26 27 28 29 30 31 32 33 34 35 36 37 38 39 40 41 42 43 44 45 46 47 48 49 50

000
ASUS45 KBOU 272210
RWRCO

WEATHER ROUNDUP FOR COLORADO
NATIONAL WEATHER SERVICE PUEBLO CO
400 PM MDT MON JUL 27 2015

NOTE: "FAIR" INDICATES FEW OR NO CLOUDS BELOW 12000 FEET WITH NO
SIGNIFICANT WEATHER AND/OR OBSTRUCTIONS TO VISIBILITY.

COZ001>005-013-030-031-272300-
...NORTHWEST COLORADO...

CITY           SKY/WX    TMP DP  RH WIND       PRES   REMARKS
CRAIG          MOSUNNY   88  35  15 SW26G37   29.95F
HAYDEN         MOSUNNY   84  37  18 SW17G33   29.99S
MEEKER         MOSUNNY   86  34  15 SW22G32   29.99S
MOUNT WERNER   NOT AVBL
STEAMBOAT SPGS FAIR      83  40  21 SW18G28   30.02S
WALDEN         FAIR      77  36  22 SW16G25   30.11R
$$

COZ006>008-011-272300-
...WEST CENTRAL VALLEYS...

CITY           SKY/WX    TMP DP  RH WIND       PRES   REMARKS
GRAND JUNCTION SUNNY     95  30  10 W17G25    29.87F
MONTROSE       MOSUNNY   90  39  16 SW22G29   30.01F
EAGLE          NOT AVBL
RIFLE          MOSUNNY   91  34  13 W17G33    29.92F
DELTA          NOT AVBL
NUCLA          FAIR      88  30  12 SW14G31   30.07S
$$

COZ017>023-064>068-272300-
...SOUTHWEST COLORADO...

CITY           SKY/WX    TMP DP  RH WIND       PRES   REMARKS
DURANGO        MOSUNNY   85  38  18 W12G22    30.13F
CORTEZ         SUNNY     90  35  14 SW21G28   30.05F
PAGOSA SPRINGS PTSUNNY   79  35  20 W9G18     30.22S
TELLURIDE      MOSUNNY   75  39  27 W9G25     30.32S
WOLF CREEK PAS NOT AVBL
$$

COZ009-010-012-014-032>034-037-058>063-272300-
...CENTRAL COLORADO...

CITY           SKY/WX    TMP DP  RH WIND       PRES   REMARKS
ASPEN          MOSUNNY   80  40  23 SW9G29    30.12F
BUENA VISTA    FAIR      81  42  24 S8G29     30.11F
COPPER MTN     PTSUNNY   63  32  31 W15G26    30.48F
BERTHOUD PASS  PTSUNNY   54  45  71 MISG      30.52S
COTTONWOOD PAS MOSUNNY   75  28  17 SW12G29   30.29F
GUNNISON       MOSUNNY   81  39  22 W13G24    30.15F
KREMMLING      PTSUNNY   86  30  13 W22G31    30.07S
LEADVILLE      MOSUNNY   71  32  23 SW14G24   30.28F
MONARCH PASS   PTSUNNY   61  39  44 W31G40    30.58F
SALIDA         FAIR      79  47  32 S14G22    30.18F
NIWOT RIDGE    NOT AVBL
SUNLIGHT       PTSUNNY   70  43  37 S3        30.38F
WILKERSON PASS PTSUNNY   70  36  28 SW7       30.42F
$$

COZ069>075-272300-
...SAN LUIS VALLEY/SANGRE DE CRISTO MOUNTAINS...

CITY           SKY/WX    TMP DP  RH WIND       PRES   REMARKS
ALAMOSA        PTSUNNY   79  42  26 S15G23    30.16F
LA VETA PASS   CLOUDY    57  41  54 MISG      30.39S
SAGUACHE       MOSUNNY   81  50  34 S14G22    30.16F
$$

COZ035-036-038>040-272300-
...NORTHERN COLORADO FRONT RANGE...

CITY           SKY/WX    TMP DP  RH WIND       PRES   REMARKS
DENVER INTL AP PTSUNNY   95  41  15 S14       29.84F
DMNS CITY PARK NOT AVBL
AURORA         PTSUNNY   92  46  19 S20       29.86F
FRONT RANGE AP NOT AVBL
ERIE MUNI ARPT FAIR      95  37  13 SW3       29.81F
BOULDER MUN AP FAIR      91  45  19 SE6       29.82F
CENTENNIAL     PTSUNNY   93  43  17 SW20G26   29.88F
BROOMFIELD     PTSUNNY   93  41  16 CALM      29.87F
LOVELAND       MOSUNNY   95  48  20 S6        29.77F
LONGMONT       FAIR      99  41  13 S5        29.82F
$$

COZ041-046-047-076>085-087-088-272300-
...PIKES PEAK/PALMER DIVIDE AND SOUTHERN FOOTHILLS...

CITY           SKY/WX    TMP DP  RH WIND       PRES   REMARKS
COLO. SPRINGS  PTSUNNY   86  42  21 SW17      29.98F
A. F. ACADEMY  MOSUNNY   86  39  18 SW10      29.98F
ELLICOTT       FAIR     N/A N/A N/A SW13G22   29.97F
FALCON         FAIR      85  43  22 S17G23    30.05F
FORT CARSON    MOSUNNY   89  44  20 SW15G23   29.95F
LIMON          PTSUNNY   91  46  21 SW16G26   29.90F
MONUMENT HILL  PTSUNNY   82  45  26 SW15G21   30.04F
TRINIDAD       MOSUNNY   96  47  18 MISG      29.97F
$$

COZ042>045-048>051-090-091-272300-
...NORTHEAST COLORADO...

CITY           SKY/WX    TMP DP  RH WIND       PRES   REMARKS
GREELEY ARPT   SUNNY     97  50  20 S7        29.79F
AKRON            N/A    N/A N/A N/A MISG      29.81F
BURLINGTON     MOSUNNY   92  62  36 S22G28    29.84F
WRAY           FAIR      95  62  33 S18G30    29.78F
STERLING       NOT AVBL
HOLYOKE        NOT AVBL
FORT MORGAN    FAIR      93  49  22 SE6       29.81F
$$

COZ086-089-092>099-272300-
...SOUTHEAST COLORADO...

CITY           SKY/WX    TMP DP  RH WIND       PRES   REMARKS
PUEBLO         CLOUDY    97  42  15 SW18      29.86F
LA JUNTA       PTSUNNY   86  62  44 SW5       29.84F
LAMAR          MOSUNNY  100  52  19 SW18G43   29.78F
SPRINGFIELD      N/A     96  55  25 SW16G25   29.89F
$$




USA.gov is the U.S. government's official web portal to all federal, state and local government web resources and services.